Regional Weather Roundup
Issued by NWS Memphis, TN

Home | Current Version | Previous Version | Text Only | Print | Product List | Glossary On
Versions: 1 2 3 4 5 6 7 8 9 10 11 12 13 14 15 16 17 18 19 20 21 22 23 24 25 26 27 28 29 30 31 32 33 34 35 36 37 38 39 40 41 42 43 44 45 46 47 48 49 50
000
ASUS44 KMEG 170010
RWRMEG
MEMPHIS CWA HOURLY WEATHER ROUNDUP
NATIONAL WEATHER SERVICE MEMPHIS TN
700 PM CDT WED AUG 16 2017

...WEST TENNESSEE...

CITY           SKY/WX    TMP DP  RH WIND       PRES   REMARKS
MEMPHIS INTL   PTCLDY    87  76  69 S10       29.96S HX  97
6HR MIN TEMP:  84; 6HR MAX TEMP:  90;

NWS MEMPHIS      N/A     89 N/A N/A MISG        N/A
JACKSON        PTCLDY    88  76  67 SW5       29.97S HX  99
6HR MIN TEMP:  86; 6HR MAX TEMP:  90;

COVINGTON      CLEAR     86  75  70 SW8       29.96R HX  95
LEXINGTON      MOCLDY    84  75  74 SW8       29.97S HX  92
SELMER         CLEAR     84  77  79 SW5       29.98S HX  94
SAVANNAH       CLEAR     86  77  74 SW7       29.97F HX  97
DYERSBURG      CLEAR     86  77  74 CALM      29.96S HX  97
6HR MIN TEMP:  85; 6HR MAX TEMP:  89;

UNION CITY     PTCLDY    86  77  74 SW9       29.95R HX  97
PARIS          CLEAR     86  77  74 SW7       29.96R HX  97


...EASTERN ARKANSAS...

CITY           SKY/WX    TMP DP  RH WIND       PRES   REMARKS
JONESBORO      CLEAR     87  80  79 S9        29.93R HX 103
6HR MIN TEMP:  82; 6HR MAX TEMP:  88;

WEST MEMPHIS   CLEAR     86  79  79 S6        29.94S HX  99
6HR MIN TEMP:  83; 6HR MAX TEMP:  88;

BATESVILLE     CLEAR     88  73  62 S3        29.93R HX  96
6HR MIN TEMP:  88; 6HR MAX TEMP:  91;

NEWPORT        CLEAR     86  77  74 S9        29.93R HX  97
6HR MIN TEMP:  85; 6HR MAX TEMP:  91;

WALNUT RIDGE   CLEAR     88  75  66 S9        29.92R HX  97
6HR MIN TEMP:  82; 6HR MAX TEMP:  90;

BLYTHEVILLE    CLEAR     86  78  77 S6        29.95S HX  98
6HR MIN TEMP:  85; 6HR MAX TEMP:  88;

SEARCY           N/A    N/A N/A N/A MISG        N/A
PINE BLUFF     CLEAR     89  75  63 S9        29.94F HX  99
6HR MIN TEMP:  87; 6HR MAX TEMP:  92;

MONTICELLO     CLOUDY    90  76  63 SE3       29.94F HX 101
6HR MIN TEMP:  88; 6HR MAX TEMP:  93;



...NORTH MISSISSIPPI...

CITY           SKY/WX    TMP DP  RH WIND       PRES   REMARKS
TUPELO         PTCLDY    83  73  72 S13       30.00R
6HR MIN TEMP:  81; 6HR MAX TEMP:  91; 6HR PCP: TRACE;

OXFORD           N/A    N/A N/A N/A MISG        N/A
BATESVILLE     CLEAR     88  73  61 S7        29.98S HX  95
6HR MIN TEMP:  84; 6HR MAX TEMP:  90;

OLIVE BRANCH   PTCLDY   N/A N/A N/A S9        29.97S
TUNICA           N/A     86  77  74 S5        29.96S HX  97
CLARKSDALE       N/A     88  79  74 S6        29.97S HX 102
GREENWOOD      PTCLDY    83  77  82 SW12G17   30.00S HX  92
6HR MIN TEMP:  83; 6HR MAX TEMP:  91;

COLUMBUS       CLOUDY    78  78  99 SW7       30.02R
6HR MIN TEMP:  78; 6HR MAX TEMP:  91; 6HR PCP: TRACE;

STARKVILLE     PTCLDY    75  73  94 CALM      30.04S
GOLDEN TRIANGL PTCLDY    79  72  78 S5        29.99R


...SOUTHEAST MISSOURI...

CITY           SKY/WX    TMP DP  RH WIND       PRES   REMARKS
KENNETT        PTCLDY    84  79  84 S5        29.93R HX  96
MALDEN         CLOUDY    86  77  74 S7        29.96R HX  97
WEST PLAINS    PTSUNNY   83  71  67 S7        29.95S
6HR MIN TEMP:  73; 6HR MAX TEMP:  87; 6HR PCP:  0.55;

POPLAR BLUFF   CLOUDY    83  78  85 S5        29.93R HX  93
6HR MIN TEMP:  83; 6HR MAX TEMP:  89;

CAPE GIRARDEAU PTCLDY    84  75  74 S9        29.94R HX  92
6HR MIN TEMP:  84; 6HR MAX TEMP:  89;



...NORTHWEST ALABAMA...

CITY           SKY/WX    TMP DP  RH WIND       PRES   REMARKS
MUSCLE SHOALS  CLEAR     85  74  69 SW5       30.01S HX  92
6HR MIN TEMP:  85; 6HR MAX TEMP:  92;



...MIDDLE TENNESSEE...

CITY           SKY/WX    TMP DP  RH WIND       PRES   REMARKS
NASHVILLE      CLOUDY    87  73  62 S12       29.99R HX  94
6HR MIN TEMP:  87; 6HR MAX TEMP:  92;

CLARKSVILLE    CLEAR     86  72  62 SW3       29.97R HX  92
6HR MIN TEMP:  86; 6HR MAX TEMP:  91;

COLUMBIA       PTCLDY    82  75  78 SW5G13    29.99R


...WESTERN KENTUCKY...

CITY           SKY/WX    TMP DP  RH WIND       PRES   REMARKS
PADUCAH        CLOUDY    85  73  67 W8        29.95R HX  91
6HR MIN TEMP:  85; 6HR MAX TEMP:  93;

FORT CAMPBELL  CLEAR     87  74  66 SW8       29.97R HX  96
6HR MIN TEMP:  87; 6HR MAX TEMP:  91;



...CENTRAL ARKANSAS...

CITY           SKY/WX    TMP DP  RH WIND       PRES   REMARKS
LITTLE ROCK    MOSUNNY   88  76  67 S9        29.92F HX  99
6HR MIN TEMP:  87; 6HR MAX TEMP:  92;



SKY/WX REPORTED AS FAIR MEANS FEW OR NO CLOUDS BELOW
12 THOUSAND FEET.




USA.gov is the U.S. government's official web portal to all federal, state and local government web resources and services.